This is the latest recevied weather packets stored in our database for station/object VK6DUG. If no packets are shown the sender has not sent any weather packets the latest 10 day(s).
| Time | Temp. | Humidity | Pressure | Rain* | Wind** | Luminosity | Snow |
|---|---|---|---|---|---|---|---|
| 1777366828 | 19.44° C | 78% | 1018.8 hPa | 0 mm | - | 26 W/m² | - |
| 1777366225 | 19.44° C | 78% | 1018.8 hPa | 0 mm | - | 33 W/m² | - |
| 1777365622 | 19.44° C | 77% | 1018.7 hPa | 0 mm | - | 52 W/m² | - |
| 1777365019 | 19.44° C | 77% | 1018.7 hPa | 0 mm | - | 53 W/m² | - |
| 1777364416 | 20° C | 77% | 1019 hPa | 0 mm | - | 36 W/m² | - |
| 1777363834 | 20° C | 76% | 1019 hPa | 0 mm | - | 59 W/m² | - |
| 1777363232 | 20° C | 76% | 1019 hPa | 0 mm | - | 108 W/m² | - |
| 1777362629 | 20° C | 77% | 1018.9 hPa | 0 mm | - | 172 W/m² | - |
| 1777362027 | 20° C | 77% | 1019 hPa | 0 mm | - | 124 W/m² | - |
| 1777361423 | 20° C | 77% | 1019 hPa | 0 mm | - | 139 W/m² | - |
| 1777360821 | 20° C | 77% | 1019 hPa | 0 mm | - | 167 W/m² | - |
| 1777360218 | 20° C | 76% | 1019 hPa | 0 mm | - | 137 W/m² | - |
| 1777359616 | 20° C | 76% | 1019 hPa | 0 mm | - | 182 W/m² | - |
| 1777359033 | 20° C | 77% | 1019 hPa | 0 mm | - | 229 W/m² | - |
| 1777358430 | 20° C | 77% | 1019 hPa | 0 mm | - | 172 W/m² | - |
| 1777357828 | 20° C | 77% | 1019 hPa | 0 mm | - | 143 W/m² | - |
| 1777357225 | 20° C | 77% | 1018.8 hPa | 0 mm | - | 167 W/m² | - |
| 1777356623 | 20° C | 77% | 1018.8 hPa | 0 mm | - | 195 W/m² | - |
| 1777356020 | 20° C | 76% | 1018.9 hPa | 0 mm | - | 232 W/m² | - |
| 1777355417 | 19.44° C | 77% | 1019.1 hPa | 0 mm | - | 282 W/m² | - |
| 1777354834 | 19.44° C | 77% | 1019.2 hPa | 0 mm | - | 245 W/m² | - |
| 1777354231 | 19.44° C | 76% | 1019.2 hPa | 0 mm | - | 251 W/m² | - |
| 1777353628 | 19.44° C | 76% | 1019.4 hPa | 0 mm | - | 304 W/m² | - |
| 1777353025 | 19.44° C | 77% | 1019.5 hPa | 0 mm | - | 316 W/m² | - |
| 1777352423 | 18.89° C | 77% | 1019.7 hPa | 0 mm | - | 301 W/m² | - |
* Rain latest hour (hover to see other rain measurements)
** Current wind speed in m/s (hover to see current wind gust speed)